Regional Weather Roundup
Issued by NWS Mobile, AL

Home | Current Version | Previous Version | Text Only | Print | Product List | Glossary On
Versions: 1 2 3 4 5 6 7 8 9 10 11 12 13 14 15 16 17 18 19 20 21 22 23 24 25 26 27 28 29 30 31 32 33 34 35 36 37 38 39 40 41 42 43 44 45 46 47 48 49 50
000
ASUS44 KMOB 290716
RWRMOB
REGIONAL WEATHER ROUNDUP
NATIONAL WEATHER SERVICE MOBILE AL
200 AM CDT SUN MAR 29 2015

ALZ061>064-290800-
COASTAL ALABAMA


CITY           SKY/WX    TMP DP  RH WIND       PRES   REMARKS
MOBILE REG APT CLEAR     44  33  65 NE5       30.30F
BROOKLEY FIELD CLEAR     49  33  54 N8        30.32S
GULF SHORES    SUNNY     44  35  71 CALM      30.30S

$$

ALZ051>060-290800-
INTERIOR SOUTHWEST AND SOUTH CENTRAL ALABAMA


CITY           SKY/WX    TMP DP  RH WIND       PRES   REMARKS
ANDALUSIA/OPP  CLEAR     44  31  60 CALM      30.30S
EVERGREEN      CLEAR     38  35  89 CALM      30.32S
FLORALA        SUNNY     38  34  85 CALM      30.32S
GREENVILLE     CLOUDY    44  32  62 N3        30.29F

$$

FLZ001>006-290800-
WESTERN FLORIDA PANHANDLE


CITY           SKY/WX    TMP DP  RH WIND       PRES   REMARKS
CRESTVIEW      CLEAR     37  32  82 CALM      30.32S
DESTIN         CLEAR     49  33  54 N9        30.30S
DUKE FIELD       N/A    N/A N/A N/A N5          N/A
MARY ESTHER    CLEAR     44  28  54 N8        30.29S
MILTON         SUNNY     45  30  55 NE8       30.31S
PENSACOLA      CLEAR     47  31  53 NE5       30.29F
NAS PENSACOLA  CLEAR     44  36  73 N5        30.29F
VALPARAISO     CLEAR     44  30  57 N8        30.29S

$$

...MARINE OBSERVATIONS...

STATION/POSITION TIME  SKY/WX   TEMP    WIND        PRES    VSBY
                                AIR SEA DIR/SP/G
                 (UTC)          (F)     (DEG/KT/KT) (MB)    (MI)
E DAUPHIN ISLAND 0700            54      40/ 13/ 16 1025.6S
MIDDLE BAY LIGHT 0600                    60/ 13     1025.4R
MEAHER PARK      0600            47      40/  3     1026.8R
12 S ORANGE BCH  0650            57 67   40/ 14/ 17 1025.0R
WVE H/P(F/S)=  1/ 3

64 S DAUPHIN ISL 0650            63 71  110/  6/ 10 1024.9F
WVE H/P(F/S)=  1/ 4

115 SE PENSACOLA 0650            63 75   20/  6/ 10 1025.0F
WVE H/P(F/S)=  1/ 4

MID GULF/42001   0650            73 79  110/  6/  8 1023.6F
WVE H/P(F/S)=  2/ 5

EAST GULF/42003  0650            67 74   60/  4/  6 1024.0F
WVE H/P(F/S)=  3/ 6


$$

...NEARBY LOCATIONS

CITY           SKY/WX    TMP DP  RH WIND       PRES   REMARKS
GULFPORT       CLEAR     50  39  66 NE9       30.27S
BILOXI         CLEAR     49  37  62 E13       30.27F
PASCAGOULA     CLEAR     46  36  68 NE6       30.29F
HATTIESBURG    CLEAR     44  33  65 CALM      30.30F
LAUREL         CLEAR     41  30  65 E3        30.30S
MERIDIAN       PTCLDY    40  32  73 CALM      30.31F
MERIDIAN NAS   NOT AVBL
MONTGOMERY     CLOUDY    47  32  56 N3        30.32S
MAXWELL AFB    CLOUDY    47  32  57 NE2       30.31S
TROY           CLOUDY    45  33  63 N6        30.31F
FORT RUCKER    CLOUDY    44  32  62 NE5       30.29F
DALEVILLE      CLOUDY    46  28  50 N7        30.29F
DOTHAN         CLOUDY    45  31  58 N8        30.32F

$$

...OTHER SURROUNDING LOCATIONS...

CITY           SKY/WX    TMP DP  RH WIND       PRES   REMARKS
BIRMINGHAM     PTCLDY    36  27  69 CALM      30.33F
TUSCALOOSA     CLOUDY    43  31  62 N6        30.32F
COLUMBUS GA    CLEAR     42  19  39 N5        30.31R
PANAMA CITY    NOT AVBL
TALLAHASSEE    CLEAR     42  36  79 CALM      30.29S
BATON ROUGE    CLEAR     53  50  89 E5        30.21F
NEW ORLEANS    CLEAR     57  50  77 SE7       30.23S
SLIDELL        CLEAR     50  46  86 NE6       30.25R
JACKSON        CLOUDY    43  31  62 E9        30.28F
MCCOMB         CLEAR     48  37  65 E7        30.25S

$$

...SURROUNDING MARINE OBSERVATIONS...

STATION/POSITION TIME  SKY/WX   TEMP    WIND        PRES    VSBY
                                AIR SEA DIR/SP/G
                 (UTC)          (F)     (DEG/KT/KT) (MB)    (MI)
SOUTHWEST PASS   0700            66     120/ 13/ 14 1023.0F
TYNDALL TOWER C  0700            56      10/ 17/ 18 1024.7S
S APLCHCLA/42036 0650            63 68  360/ 10/ 12 1024.3F
WVE H/P(F/S)=  2/ 4


$$



USA.gov is the U.S. government's official web portal to all federal, state and local government web resources and services.